STARLINK-35415, 65885

Orbit data source: Space-Track

STARLINK-35415, 65885 is a payload satellite owned by SpaceX/Seattle (US) in LEO that was launched on Tue, 07 Oct 2025 UTC via an FALCON 9 launch vehicle from the Air Force Eastern Test Range (AFETR). Payload-class satellites include a variety of spacecraft equipped with specific instruments for various scientific and technological missions. These include communications satellites like Starlink; space stations such as the ISS; scientific satellites like the Hubble; Earth observation satellites from companies like Planet Labs, Umbra, and HawkEye 360; GPS; miniature CubeSats for education and research; and military/defense satellites.

Loading next visibility...
Identifier
65885, 2025-224D
Orbit
LEO
Country
Flag of USUS
Related business
Manufacturer
SpaceX/Seattle
Mission
Operational Commercial Communications
Bus & Motor
STARLINK V2MO, Unknown motor
Mass
575 kg wet, ~530 kg dry
Launch date (UTC)
2025-10-07 (5 months ago)
Launch vehicle
FALCON 9
Launch site
Air Force Eastern Test Range (AFETR)
Object type
Payload
Rocket body
Debris
Shape & HBR
Box + 2 Pan, 17.7 m
Radar Cross Section
36.964 m²

Expand to show TLE details & history
Last TLE update: 11 hours ago

TLE from 11 hours ago
0 STARLINK-35415
1 65885U 25224D   26062.20168803  .00032876  00000-0  11170-2 0  9999
2 65885  53.1620  41.2989 0001230  75.8307 284.2830 15.30207521 23783
Epoch: 2026-03-03T04:50Z
TLE epoch observation values (Epoch: 2026-03-03T04:50:25.845Z)
Latitude
-0.00007°
Longitude
167.70702°
Altitude
475.885 km
Speed
7.629 km/s
True Right ascension
02h 45m 11s
True Declination
0° 00' 00"
Sunlit
Object was in daylight at epoch
Visualization orbit readout
Latitude
Unknown
Longitude
Unknown
Altitude
Unknown
Speed
Unknown
Apparent Right ascension
Unknown
Apparent Declination
Unknown
Sunlit
N/A
Visualization observer readout
Local Sidereal Time
19:34:22
Azimuth
Unknown
Elevation
Unknown
Doppler factor
Unknown
Orbital elements
Apogee altitude
476.292 km
Perigee altitude
474.606 km
Semi-major axis
6,853.586 km
Eccentricity
0.00012
Inclination
53.162°
RAAN
41.2989°
Arg. of periapsis
75.8307°
True anomaly
284.26934°
Mean anomaly
284.283°
Eccentric anomaly
284.27617°
Mean motion
3.82531 °/min
Orbital period
94.11 mins
BSTAR
0.001117
Loading maneuver chart data...
Computing Atmospheric mass density...
Loading historical data...
Loading historical data...
Loading historical data...
Loading historical data...
Loading historical data...
Loading historical data...
Loading historical data...

Documentation

Showing up to 5 results
|